Location: Newark
(13.6797°N, 8.5297°E)
Time: 04:53:34
(UTC+00:00)

Altair - Pass Details

Date: 26 January 2020
Orbit: 1502 x 1682 km, 47.2° (Epoch: 18 February)

Event Time Altitude Azimuth Distance (km) Brightness Sun altitude
Rises 17:55:02 0° 285° (WNW) 4,824 11.2 -8.2°
Reaches altitude 10° 18:00:14 10° 263° (W) 3,797 11.1 -9.4°
Maximum altitude 18:04:47 14° 234° (SW) 3,425 10.5 -10.5°
Drops below altitude 10° 18:09:19 10° 204° (SSW) 3,726 10.1 -11.5°
Sets 18:14:24 0° 181° (S) 4,674 10.3 -12.7°
